Regional Weather Roundup
Issued by NWS

Current Version | Previous Version | Text Only | Print | Product List | Glossary On
Versions: 1 2 3 4 5 6 7 8 9 10 11 12 13 14 15 16 17 18 19 20 21 22 23 24 25 26 27 28 29 30 31 32 33 34 35 36 37 38 39 40 41 42 43 44 45 46 47 48 49
000
ASUS44 KBMX 300010
RWRAL

ALABAMA REGIONAL WEATHER ROUNDUP
NATIONAL WEATHER SERVICE BIRMINGHAM AL
700 PM CDT SUN MAR 29 2015

NOTE: "FAIR" INDICATES FEW OR NO CLOUDS BELOW 12,000 FEET
WITH NO SIGNIFICANT WEATHER AND/OR OBSTRUCTIONS TO VISIBILITY.

THE REMARK "TC" DENOTES TEMPERATURE IN DEGREES CELSIUS.

ALZ001>011-014-016>018-020-300100-
NORTH ALABAMA

CITY           SKY/WX    TMP DP  RH WIND       PRES   REMARKS
MUSCLE SHOALS  PTCLDY    60  40  47 S9        30.12F
6HR MIN TEMP:  56; 6HR MAX TEMP:  63;

HUNTSVILLE     PTCLDY    59  38  45 S12       30.16R
6HR MIN TEMP:  59; 6HR MAX TEMP:  62;

DECATUR        CLEAR     57  39  51 S13       30.15S
6HR MIN TEMP:  56; 6HR MAX TEMP:  60;

HALEYVILLE     FAIR      59  41  51 S10       30.16F
6HR MIN TEMP:  51; 6HR MAX TEMP:  61;

GADSDEN        CLEAR     57  34  41 S5        30.19S
6HR MIN TEMP:  57; 6HR MAX TEMP:  61;

$$

ALZ012-013-022-023-030>036-040>044-300100-
WEST CENTRAL ALABAMA

CITY           SKY/WX    TMP DP  RH WIND       PRES   REMARKS
TUSCALOOSA     CLEAR     66  43  43 SE6       30.16F
6HR MIN TEMP:  57; 6HR MAX TEMP:  68;

$$

ALZ015-024>027-033>036-040>044-300100-
CENTRAL ALABAMA

CITY           SKY/WX    TMP DP  RH WIND       PRES   REMARKS
BIRMINGHAM     CLEAR     61  38  42 S8        30.21F
6HR MIN TEMP:  57; 6HR MAX TEMP:  63;

MONTGOMERY     CLEAR     65  41  41 MISG      30.23R
6HR MIN TEMP:  60; 6HR MAX TEMP:  69;

SHELBY CO ARPT CLEAR     63  39  41 S7        30.20S
6HR MIN TEMP:  56; 6HR MAX TEMP:  65;

MAXWELL AFB    CLEAR     61  43  50 S8        30.21S
6HR MIN TEMP:  59; 6HR MAX TEMP:  68;

GREENVILLE     FAIR      64  42  44 SE5       30.22S
6HR MIN TEMP:  61; 6HR MAX TEMP:  70;

$$

ALZ019-021-028-029-037-038-045>048-300100-
EAST CENTRAL ALABAMA

CITY           SKY/WX    TMP DP  RH WIND       PRES   REMARKS
ANNISTON       CLEAR     59  33  37 S5        30.22R
6HR MIN TEMP:  58; 6HR MAX TEMP:  63;

ALEXANDER CITY CLEAR     60  34  37 SE3       30.23S
6HR MIN TEMP:  59; 6HR MAX TEMP:  67;

AUBURN         CLEAR     57  30  35 S7        30.28R
6HR MIN TEMP:  55; 6HR MAX TEMP:  61;

$$

ALZ051>064-300100-
SOUTHWEST ALABAMA

CITY           SKY/WX    TMP DP  RH WIND       PRES   REMARKS
MOBILE         PTCLDY    62  54  74 SE12      30.26S
6HR MIN TEMP:  62; 6HR MAX TEMP:  69;

BROOKLEY FIELD MOCLDY    63  54  72 SE9       30.27F
6HR MIN TEMP:  63; 6HR MAX TEMP:  67;

EVERGREEN      CLEAR     64  48  56 S9        30.25R
6HR MIN TEMP:  64; 6HR MAX TEMP:  71;

$$

ALZ049-050-065>069-300100-
SOUTHEAST ALABAMA

CITY           SKY/WX    TMP DP  RH WIND       PRES   REMARKS
DOTHAN         CLEAR     60  40  47 SE6       30.29S
6HR MIN TEMP:  60; 6HR MAX TEMP:  67;

OZARK          CLEAR     64  39  39 SE3       30.25S
6HR MIN TEMP:  62; 6HR MAX TEMP:  68;

TROY           CLEAR     62  41  46 S3        30.25R
6HR MIN TEMP:  61; 6HR MAX TEMP:  69;

EUFAULA        FAIR      59  35  40 SE3       30.25F
6HR MIN TEMP:  59; 6HR MAX TEMP:  68;

$$



USA.gov is the U.S. government's official web portal to all federal, state and local government web resources and services.